Year,Month,Day,Hour,Minute,Value (Times are PST for temperature in C)
2015,09,15,00,00,8.00
2015,09,15,00,01,8.00
2015,09,15,00,02,8.00
2015,09,15,00,03,8.00
2015,09,15,00,04,8.00
2015,09,15,00,05,8.00
2015,09,15,00,06,8.00
2015,09,15,00,07,8.00
2015,09,15,00,08,8.10
2015,09,15,00,09,8.10
2015,09,15,00,10,8.10
2015,09,15,00,11,8.10
2015,09,15,00,12,8.10
2015,09,15,00,13,8.10
2015,09,15,00,14,8.10
2015,09,15,00,15,8.10
2015,09,15,00,16,8.20
2015,09,15,00,17,8.20
2015,09,15,00,18,8.20
2015,09,15,00,19,8.20
2015,09,15,00,20,8.20
2015,09,15,00,21,8.20
2015,09,15,00,22,8.20
2015,09,15,00,23,8.20
2015,09,15,00,24,8.20
2015,09,15,00,25,8.20
2015,09,15,00,26,8.20
2015,09,15,00,27,8.20
2015,09,15,00,28,8.20
2015,09,15,00,29,8.20
2015,09,15,00,30,8.20
2015,09,15,00,31,8.20
2015,09,15,00,32,8.30
2015,09,15,00,33,8.30
2015,09,15,00,34,8.30
2015,09,15,00,35,8.30
2015,09,15,00,36,8.30
2015,09,15,00,37,8.30
2015,09,15,00,38,8.30
2015,09,15,00,39,8.30
2015,09,15,00,40,8.30
2015,09,15,00,41,8.30
2015,09,15,00,42,8.30
2015,09,15,00,43,8.30
2015,09,15,00,44,8.30
2015,09,15,00,45,8.30
2015,09,15,00,46,8.30
2015,09,15,00,47,8.30
2015,09,15,00,48,8.30
2015,09,15,00,49,8.40
2015,09,15,00,50,8.40
2015,09,15,00,51,8.40
2015,09,15,00,52,8.40
2015,09,15,00,53,8.40
2015,09,15,00,54,8.40
2015,09,15,00,55,8.40
2015,09,15,00,56,8.40
2015,09,15,00,57,8.40
2015,09,15,00,58,8.40
2015,09,15,00,59,8.40
2015,09,15,01,00,8.40
2015,09,15,01,01,8.40
2015,09,15,01,02,8.40
2015,09,15,01,03,8.40
2015,09,15,01,04,8.40
2015,09,15,01,05,8.50
2015,09,15,01,06,8.50
2015,09,15,01,07,8.50
2015,09,15,01,08,8.50
2015,09,15,01,09,8.50
2015,09,15,01,10,8.50
2015,09,15,01,11,8.50
2015,09,15,01,12,8.50
2015,09,15,01,13,8.50
2015,09,15,01,14,8.60
2015,09,15,01,15,8.60
2015,09,15,01,16,8.60
2015,09,15,01,17,8.60
2015,09,15,01,18,8.60
2015,09,15,01,19,8.60
2015,09,15,01,20,8.60
2015,09,15,01,21,8.60
2015,09,15,01,22,8.60
2015,09,15,01,23,8.60
2015,09,15,01,24,8.60
2015,09,15,01,25,8.60
2015,09,15,01,26,8.60
2015,09,15,01,27,8.60
2015,09,15,01,28,8.60
2015,09,15,01,29,8.60
2015,09,15,01,30,8.60
2015,09,15,01,31,8.60
2015,09,15,01,32,8.60
2015,09,15,01,33,8.60
2015,09,15,01,34,8.60
2015,09,15,01,35,8.60
2015,09,15,01,36,8.60
2015,09,15,01,37,8.60
2015,09,15,01,38,8.60
2015,09,15,01,39,8.60
2015,09,15,01,40,8.60
2015,09,15,01,41,8.60
2015,09,15,01,42,8.60
2015,09,15,01,43,8.60
2015,09,15,01,44,8.60
2015,09,15,01,49,8.60
2015,09,15,01,50,8.60
2015,09,15,01,51,8.60
2015,09,15,01,52,8.60
2015,09,15,01,53,8.60
2015,09,15,01,54,8.60
2015,09,15,01,55,8.60
2015,09,15,01,56,8.60
2015,09,15,01,57,8.60
2015,09,15,01,58,8.60
2015,09,15,01,59,8.70
2015,09,15,02,00,8.70
2015,09,15,02,01,8.70
2015,09,15,02,02,8.70
2015,09,15,02,03,8.70
2015,09,15,02,04,8.70
2015,09,15,02,05,8.70
2015,09,15,02,06,8.80
2015,09,15,02,07,8.80
2015,09,15,02,08,8.80
2015,09,15,02,09,8.80
2015,09,15,02,10,8.80
2015,09,15,02,11,8.80
2015,09,15,02,12,8.80
2015,09,15,02,13,8.80
2015,09,15,02,14,8.80
2015,09,15,02,15,8.80
2015,09,15,02,16,8.80
2015,09,15,02,17,8.80
2015,09,15,02,18,8.80
2015,09,15,02,19,8.80
2015,09,15,02,20,8.80
2015,09,15,02,21,8.80
2015,09,15,02,22,8.80
2015,09,15,02,23,8.80
2015,09,15,02,24,8.80
2015,09,15,02,25,8.80
2015,09,15,02,26,8.80
2015,09,15,02,27,8.90
2015,09,15,02,28,8.90
2015,09,15,02,29,8.90
2015,09,15,02,30,8.90
2015,09,15,02,31,8.80
2015,09,15,02,32,8.80
2015,09,15,02,33,8.80
2015,09,15,02,34,8.80
2015,09,15,02,35,8.80
2015,09,15,02,36,8.80
2015,09,15,02,37,8.80
2015,09,15,02,38,8.80
2015,09,15,02,39,8.80
2015,09,15,02,40,8.80
2015,09,15,02,41,8.80
2015,09,15,02,42,8.80
2015,09,15,02,43,8.80
2015,09,15,02,44,8.80
2015,09,15,02,45,8.80
2015,09,15,02,46,8.80
2015,09,15,02,47,8.80
2015,09,15,02,48,8.80
2015,09,15,02,49,8.80
2015,09,15,02,50,8.70
2015,09,15,02,51,8.70
2015,09,15,02,52,8.70
2015,09,15,02,53,8.70
2015,09,15,02,54,8.70
2015,09,15,02,55,8.70
2015,09,15,02,56,8.70
2015,09,15,02,57,8.70
2015,09,15,02,58,8.70
2015,09,15,02,59,8.60
2015,09,15,03,00,8.60
2015,09,15,03,01,8.60
2015,09,15,03,02,8.60
2015,09,15,03,03,8.60
2015,09,15,03,04,8.60
2015,09,15,03,05,8.60
2015,09,15,03,06,8.60
2015,09,15,03,07,8.60
2015,09,15,03,08,8.60
2015,09,15,03,09,8.60
2015,09,15,03,10,8.60
2015,09,15,03,11,8.60
2015,09,15,03,12,8.50
2015,09,15,03,13,8.50
2015,09,15,03,14,8.50
2015,09,15,03,15,8.50
2015,09,15,03,16,8.50
2015,09,15,03,17,8.50
2015,09,15,03,18,8.50
2015,09,15,03,19,8.40
2015,09,15,03,20,8.40
2015,09,15,03,21,8.40
2015,09,15,03,22,8.40
2015,09,15,03,23,8.40
2015,09,15,03,24,8.40
2015,09,15,03,25,8.40
2015,09,15,03,26,8.40
2015,09,15,03,27,8.40
2015,09,15,03,28,8.40
2015,09,15,03,29,8.30
2015,09,15,03,30,8.30
2015,09,15,03,31,8.30
2015,09,15,03,32,8.30
2015,09,15,03,33,8.30
2015,09,15,03,34,8.30
2015,09,15,03,35,8.30
2015,09,15,03,36,8.30
2015,09,15,03,37,8.20
2015,09,15,03,38,8.20
2015,09,15,03,39,8.20
2015,09,15,03,40,8.20
2015,09,15,03,41,8.20
2015,09,15,03,42,8.20
2015,09,15,03,43,8.20
2015,09,15,03,44,8.20
2015,09,15,03,45,8.20
2015,09,15,03,46,8.20
2015,09,15,03,47,8.20
2015,09,15,03,48,8.10
2015,09,15,03,49,8.10
2015,09,15,03,50,8.10
2015,09,15,03,51,8.10
2015,09,15,03,52,8.10
2015,09,15,03,53,8.10
2015,09,15,03,54,8.10
2015,09,15,03,55,8.10
2015,09,15,03,56,8.10
2015,09,15,03,57,8.00
2015,09,15,03,58,8.00
2015,09,15,03,59,8.00
2015,09,15,04,00,8.00
2015,09,15,04,01,8.00
2015,09,15,04,02,8.00
2015,09,15,04,03,8.00
2015,09,15,04,04,8.00
2015,09,15,04,05,8.00
2015,09,15,04,06,8.00
2015,09,15,04,07,8.00
2015,09,15,04,08,8.00
2015,09,15,04,09,8.00
2015,09,15,04,10,8.00
2015,09,15,04,11,8.00
2015,09,15,04,12,8.00
2015,09,15,04,13,8.00
2015,09,15,04,14,8.00
2015,09,15,04,15,8.00
2015,09,15,04,16,8.00
2015,09,15,04,17,8.00
2015,09,15,04,18,8.00
2015,09,15,04,19,8.00
2015,09,15,04,20,8.00
2015,09,15,04,21,8.00
2015,09,15,04,22,8.00
2015,09,15,04,23,8.00
2015,09,15,04,24,8.00
2015,09,15,04,25,8.00
2015,09,15,04,26,7.90
2015,09,15,04,27,7.90
2015,09,15,04,28,7.90
2015,09,15,04,29,7.90
2015,09,15,04,30,7.90
2015,09,15,04,31,7.90
2015,09,15,04,32,7.90
2015,09,15,04,33,7.90
2015,09,15,04,34,7.90
2015,09,15,04,35,7.90
2015,09,15,04,36,7.90
2015,09,15,04,37,7.90
2015,09,15,04,38,7.90
2015,09,15,04,39,7.90
2015,09,15,04,40,7.90
2015,09,15,04,41,7.90
2015,09,15,04,42,7.80
2015,09,15,04,43,7.80
2015,09,15,04,44,7.80
2015,09,15,04,45,7.80
2015,09,15,04,46,7.80
2015,09,15,04,47,7.80
2015,09,15,04,48,7.80
2015,09,15,04,49,7.80
2015,09,15,04,50,7.80
2015,09,15,04,51,7.80
2015,09,15,04,52,7.80
2015,09,15,04,53,7.80
2015,09,15,04,54,7.80
2015,09,15,04,55,7.80
2015,09,15,04,56,7.80
2015,09,15,04,57,7.80
2015,09,15,04,58,7.80
2015,09,15,04,59,7.80
2015,09,15,05,00,7.80
2015,09,15,05,01,7.80
2015,09,15,05,02,7.80
2015,09,15,05,03,7.80
2015,09,15,05,04,7.80
2015,09,15,05,05,7.80
2015,09,15,05,06,7.80
2015,09,15,05,07,7.80
2015,09,15,05,08,7.80
2015,09,15,05,09,7.80
2015,09,15,05,10,7.80
2015,09,15,05,11,7.70
2015,09,15,05,12,7.70
2015,09,15,05,13,7.70
2015,09,15,05,14,7.70
2015,09,15,05,15,7.70
2015,09,15,05,16,7.70
2015,09,15,05,17,7.70
2015,09,15,05,18,7.80
2015,09,15,05,19,7.80
2015,09,15,05,20,7.80
2015,09,15,05,21,7.80
2015,09,15,05,22,7.80
2015,09,15,05,23,7.80
2015,09,15,05,24,7.80
2015,09,15,05,25,7.80
2015,09,15,05,26,7.80
2015,09,15,05,27,7.80
2015,09,15,05,28,7.80
2015,09,15,05,29,7.80
2015,09,15,05,30,7.80
2015,09,15,05,31,7.80
2015,09,15,05,32,7.80
2015,09,15,05,33,7.80
2015,09,15,05,34,7.80
2015,09,15,05,35,7.80
2015,09,15,05,36,7.80
2015,09,15,05,37,7.80
2015,09,15,05,38,7.80
2015,09,15,05,39,7.80
2015,09,15,05,40,7.80
2015,09,15,05,41,7.80
2015,09,15,05,42,7.80
2015,09,15,05,43,7.80
2015,09,15,05,44,7.80
2015,09,15,05,45,7.80
2015,09,15,05,46,7.80
2015,09,15,05,47,7.80
2015,09,15,05,48,7.80
2015,09,15,05,49,7.80
2015,09,15,05,50,7.80
2015,09,15,05,51,7.80
2015,09,15,05,52,7.90
2015,09,15,05,53,7.90
2015,09,15,05,54,7.90
2015,09,15,05,55,7.80
2015,09,15,05,56,7.80
2015,09,15,05,57,7.80
2015,09,15,05,58,7.80
2015,09,15,05,59,7.80
2015,09,15,06,00,7.80
2015,09,15,06,01,7.80
2015,09,15,06,02,7.80
2015,09,15,06,03,7.80
2015,09,15,06,04,7.80
2015,09,15,06,05,7.80
2015,09,15,06,06,7.80
2015,09,15,06,07,7.80
2015,09,15,06,08,7.80
2015,09,15,06,09,7.80
2015,09,15,06,10,7.80
2015,09,15,06,11,7.80
2015,09,15,06,12,7.80
2015,09,15,06,13,7.80
2015,09,15,06,14,7.80
2015,09,15,06,15,7.80
2015,09,15,06,16,7.80
2015,09,15,06,17,7.80
2015,09,15,06,18,7.80
2015,09,15,06,19,7.80
2015,09,15,06,20,7.80
2015,09,15,06,21,7.80
2015,09,15,06,22,7.80
2015,09,15,06,23,7.80
2015,09,15,06,24,7.80
2015,09,15,06,25,7.80
2015,09,15,06,26,7.80
2015,09,15,06,27,7.80
2015,09,15,06,28,7.80
2015,09,15,06,29,7.80
2015,09,15,06,30,7.80
2015,09,15,06,31,7.70
2015,09,15,06,32,7.70
2015,09,15,06,33,7.70
2015,09,15,06,34,7.70
2015,09,15,06,35,7.70
2015,09,15,06,36,7.70
2015,09,15,06,37,7.70
2015,09,15,06,38,7.70
2015,09,15,06,39,7.70
2015,09,15,06,40,7.70
2015,09,15,06,41,7.70
2015,09,15,06,42,7.70
2015,09,15,06,43,7.70
2015,09,15,06,44,7.70
2015,09,15,06,45,7.70
2015,09,15,06,46,7.70
2015,09,15,06,47,7.70
2015,09,15,06,48,7.70
2015,09,15,06,49,7.70
2015,09,15,06,50,7.70
2015,09,15,06,51,7.70
2015,09,15,06,52,7.70
2015,09,15,06,53,7.80
2015,09,15,06,54,7.80
2015,09,15,06,55,7.80
2015,09,15,06,56,7.80
2015,09,15,06,57,7.80
2015,09,15,06,58,7.80
2015,09,15,06,59,7.90
2015,09,15,07,00,7.90
2015,09,15,07,01,7.90
2015,09,15,07,02,7.90
2015,09,15,07,03,7.90
2015,09,15,07,04,7.90
2015,09,15,07,05,7.90
2015,09,15,07,06,7.90
2015,09,15,07,07,7.90
2015,09,15,07,08,7.90
2015,09,15,07,09,7.90
2015,09,15,07,10,7.90
2015,09,15,07,11,7.90
2015,09,15,07,12,7.90
2015,09,15,07,13,7.90
2015,09,15,07,14,7.90
2015,09,15,07,15,8.00
2015,09,15,07,16,8.00
2015,09,15,07,17,8.00
2015,09,15,07,18,8.00
2015,09,15,07,19,8.00
2015,09,15,07,20,8.00
2015,09,15,07,21,8.00
2015,09,15,07,22,8.00
2015,09,15,07,23,8.00
2015,09,15,07,24,8.10
2015,09,15,07,25,8.10
2015,09,15,07,26,8.10
2015,09,15,07,27,8.10
2015,09,15,07,28,8.10
2015,09,15,07,29,8.10
2015,09,15,07,30,8.10
2015,09,15,07,31,8.10
2015,09,15,07,32,8.10
2015,09,15,07,33,8.10
2015,09,15,07,34,8.10
2015,09,15,07,35,8.10
2015,09,15,07,36,8.10
2015,09,15,07,37,8.10
2015,09,15,07,38,8.10
2015,09,15,07,39,8.10
2015,09,15,07,40,8.20
2015,09,15,07,41,8.20
2015,09,15,07,42,8.20
2015,09,15,07,43,8.20
2015,09,15,07,44,8.20
2015,09,15,07,45,8.20
2015,09,15,07,46,8.20
2015,09,15,07,47,8.20
2015,09,15,07,48,8.20
2015,09,15,07,49,8.20
2015,09,15,07,50,8.20
2015,09,15,07,51,8.20
2015,09,15,07,52,8.20
2015,09,15,07,53,8.20
2015,09,15,07,54,8.20
2015,09,15,07,55,8.20
2015,09,15,07,56,8.20
2015,09,15,07,57,8.20
2015,09,15,07,58,8.30
2015,09,15,07,59,8.30
2015,09,15,08,00,8.30
2015,09,15,08,01,8.30
2015,09,15,08,02,8.30
2015,09,15,08,03,8.30
2015,09,15,08,04,8.30
2015,09,15,08,05,8.30
2015,09,15,08,06,8.30
2015,09,15,08,07,8.40
2015,09,15,08,08,8.40
2015,09,15,08,09,8.40
2015,09,15,08,10,8.40
2015,09,15,08,11,8.40
2015,09,15,08,12,8.40
2015,09,15,08,13,8.40
2015,09,15,08,14,8.50
2015,09,15,08,15,8.50
2015,09,15,08,16,8.50
2015,09,15,08,17,8.60
2015,09,15,08,18,8.60
2015,09,15,08,19,8.60
2015,09,15,08,20,8.60
2015,09,15,08,21,8.60
2015,09,15,08,22,8.70
2015,09,15,08,23,8.70
2015,09,15,08,24,8.70
2015,09,15,08,25,8.70
2015,09,15,08,26,8.70
2015,09,15,08,27,8.70
2015,09,15,08,28,8.70
2015,09,15,08,29,8.80
2015,09,15,08,30,8.80
2015,09,15,08,31,8.80
2015,09,15,08,32,8.80
2015,09,15,08,33,8.80
2015,09,15,08,34,8.80
2015,09,15,08,35,8.80
2015,09,15,08,36,8.80
2015,09,15,08,37,8.80
2015,09,15,08,38,8.80
2015,09,15,08,39,8.80
2015,09,15,08,40,8.90
2015,09,15,08,41,8.90
2015,09,15,08,42,8.90
2015,09,15,08,43,8.90
2015,09,15,08,44,8.90
2015,09,15,08,45,8.90
2015,09,15,08,46,8.90
2015,09,15,08,47,8.90
2015,09,15,08,48,8.90
2015,09,15,08,49,9.00
2015,09,15,08,50,9.00
2015,09,15,08,51,9.00
2015,09,15,08,52,9.00
2015,09,15,08,53,9.00
2015,09,15,08,54,9.10
2015,09,15,08,55,9.10
2015,09,15,08,56,9.10
2015,09,15,08,57,9.10
2015,09,15,08,58,9.10
2015,09,15,08,59,9.10
2015,09,15,09,00,9.20
2015,09,15,09,01,9.20
2015,09,15,09,02,9.20
2015,09,15,09,03,9.20
2015,09,15,09,04,9.20
2015,09,15,09,05,9.30
2015,09,15,09,06,9.30
2015,09,15,09,07,9.30
2015,09,15,09,08,9.30
2015,09,15,09,09,9.40
2015,09,15,09,10,9.40
2015,09,15,09,11,9.40
2015,09,15,09,12,9.40
2015,09,15,09,13,9.50
2015,09,15,09,14,9.50
2015,09,15,09,15,9.50
2015,09,15,09,16,9.60
2015,09,15,09,17,9.60
2015,09,15,09,18,9.60
2015,09,15,09,19,9.60
2015,09,15,09,20,9.70
2015,09,15,09,21,9.70
2015,09,15,09,22,9.70
2015,09,15,09,23,9.70
2015,09,15,09,24,9.70
2015,09,15,09,25,9.80
2015,09,15,09,26,9.80
2015,09,15,09,27,9.80
2015,09,15,09,28,9.80
2015,09,15,09,29,9.80
2015,09,15,09,30,9.80
2015,09,15,09,31,9.80
2015,09,15,09,32,9.90
2015,09,15,09,33,9.90
2015,09,15,09,34,9.90
2015,09,15,09,35,9.90
2015,09,15,09,36,9.90
2015,09,15,09,37,10.00
2015,09,15,09,38,10.00
2015,09,15,09,39,10.00
2015,09,15,09,40,10.10
2015,09,15,09,41,10.10
2015,09,15,09,42,10.10
2015,09,15,09,43,10.10
2015,09,15,09,44,10.20
2015,09,15,09,45,10.20
2015,09,15,09,46,10.20
2015,09,15,09,47,10.30
2015,09,15,09,48,10.30
2015,09,15,09,49,10.40
2015,09,15,09,50,10.40
2015,09,15,09,51,10.50
2015,09,15,09,52,10.50
2015,09,15,09,53,10.60
2015,09,15,09,54,10.70
2015,09,15,09,55,10.80
2015,09,15,09,56,10.80
2015,09,15,09,57,10.90
2015,09,15,09,58,11.00
2015,09,15,09,59,11.10
2015,09,15,10,00,11.10
2015,09,15,10,01,11.20
2015,09,15,10,02,11.20
2015,09,15,10,03,11.30
2015,09,15,10,04,11.40
2015,09,15,10,05,11.40
2015,09,15,10,06,11.50
2015,09,15,10,07,11.60
2015,09,15,10,08,11.70
2015,09,15,10,09,11.80
2015,09,15,10,10,11.90
2015,09,15,10,11,12.00
2015,09,15,10,12,12.00
2015,09,15,10,13,12.20
2015,09,15,10,14,12.20
2015,09,15,10,15,12.30
2015,09,15,10,16,12.40
2015,09,15,10,17,12.50
2015,09,15,10,18,12.60
2015,09,15,10,19,12.60
2015,09,15,10,20,12.70
2015,09,15,10,21,12.80
2015,09,15,10,22,12.80
2015,09,15,10,23,12.90
2015,09,15,10,24,12.90
2015,09,15,10,25,12.90
2015,09,15,10,26,13.00
2015,09,15,10,27,13.00
2015,09,15,10,28,13.10
2015,09,15,10,29,13.20
2015,09,15,10,30,13.20
2015,09,15,10,31,13.20
2015,09,15,10,32,13.30
2015,09,15,10,33,13.30
2015,09,15,10,34,13.30
2015,09,15,10,35,13.30
2015,09,15,10,36,13.30
2015,09,15,10,37,13.30
2015,09,15,10,38,13.30
2015,09,15,10,39,13.30
2015,09,15,10,40,13.30
2015,09,15,10,41,13.40
2015,09,15,10,42,13.40
2015,09,15,10,43,13.50
2015,09,15,10,44,13.50
2015,09,15,10,45,13.60
2015,09,15,10,46,13.70
2015,09,15,10,47,13.70
2015,09,15,10,48,13.80
2015,09,15,10,49,13.80
2015,09,15,10,50,13.90
2015,09,15,10,51,14.00
2015,09,15,10,52,14.00
2015,09,15,10,53,14.10
2015,09,15,10,54,14.20
2015,09,15,10,55,14.30
2015,09,15,10,56,14.40
2015,09,15,10,57,14.40
2015,09,15,10,58,14.50
2015,09,15,10,59,14.60
2015,09,15,11,00,14.70
2015,09,15,11,01,14.80
2015,09,15,11,02,14.80
2015,09,15,11,03,15.00
2015,09,15,11,04,15.00
2015,09,15,11,05,15.00
2015,09,15,11,06,15.00
2015,09,15,11,07,15.00
2015,09,15,11,08,15.10
2015,09,15,11,09,15.20
2015,09,15,11,10,15.20
2015,09,15,11,11,15.20
2015,09,15,11,12,15.20
2015,09,15,11,13,15.20
2015,09,15,11,14,15.30
2015,09,15,11,15,15.40
2015,09,15,11,16,15.40
2015,09,15,11,17,15.40
2015,09,15,11,18,15.40
2015,09,15,11,19,15.50
2015,09,15,11,20,15.50
2015,09,15,11,21,15.50
2015,09,15,11,22,15.60
2015,09,15,11,23,15.60
2015,09,15,11,24,15.60
2015,09,15,11,25,15.50
2015,09,15,11,26,15.50
2015,09,15,11,27,15.50
2015,09,15,11,28,15.60
2015,09,15,11,29,15.60
2015,09,15,11,30,15.70
2015,09,15,11,31,15.70
2015,09,15,11,32,15.70
2015,09,15,11,33,15.70
2015,09,15,11,34,15.70
2015,09,15,11,35,15.60
2015,09,15,11,36,15.60
2015,09,15,11,37,15.60
2015,09,15,11,38,15.60
2015,09,15,11,39,15.60
2015,09,15,11,40,15.50
2015,09,15,11,41,15.50
2015,09,15,11,42,15.60
2015,09,15,11,43,15.60
2015,09,15,11,44,15.60
2015,09,15,11,45,15.50
2015,09,15,11,46,15.50
2015,09,15,11,47,15.50
2015,09,15,11,48,15.40
2015,09,15,11,49,15.40
2015,09,15,11,50,15.40
2015,09,15,11,51,15.40
2015,09,15,11,52,15.40
2015,09,15,11,53,15.40
2015,09,15,11,54,15.50
2015,09,15,11,55,15.50
2015,09,15,11,56,15.50
2015,09,15,11,57,15.60
2015,09,15,11,58,15.60
2015,09,15,11,59,15.60
2015,09,15,12,00,15.60
2015,09,15,12,01,15.50
2015,09,15,12,02,15.50
2015,09,15,12,03,15.50
2015,09,15,12,04,15.50
2015,09,15,12,05,15.40
2015,09,15,12,06,15.50
2015,09,15,12,07,15.50
2015,09,15,12,08,15.60
2015,09,15,12,09,15.60
2015,09,15,12,10,15.70
2015,09,15,12,11,15.70
2015,09,15,12,12,15.80
2015,09,15,12,13,15.80
2015,09,15,12,14,15.80
2015,09,15,12,15,15.80
2015,09,15,12,16,15.80
2015,09,15,12,17,15.60
2015,09,15,12,18,15.60
2015,09,15,12,19,15.70
2015,09,15,12,20,15.70
2015,09,15,12,21,15.80
2015,09,15,12,22,15.80
2015,09,15,12,23,15.80
2015,09,15,12,24,15.80
2015,09,15,12,25,15.80
2015,09,15,12,26,15.80
2015,09,15,12,27,15.80
2015,09,15,12,28,15.90
2015,09,15,12,29,15.90
2015,09,15,12,30,16.00
2015,09,15,12,31,16.00
2015,09,15,12,32,16.10
2015,09,15,12,33,16.10
2015,09,15,12,34,16.20
2015,09,15,12,35,16.20
2015,09,15,12,36,16.30
2015,09,15,12,37,16.30
2015,09,15,12,38,16.30
2015,09,15,12,39,16.30
2015,09,15,12,40,16.30
2015,09,15,12,41,16.30
2015,09,15,12,42,16.40
2015,09,15,12,43,16.40
2015,09,15,12,44,16.50
2015,09,15,12,45,16.50
2015,09,15,12,46,16.60
2015,09,15,12,47,16.60
2015,09,15,12,48,16.60
2015,09,15,12,49,16.60
2015,09,15,12,50,16.60
2015,09,15,12,51,16.60
2015,09,15,12,52,16.50
2015,09,15,12,53,16.60
2015,09,15,12,54,16.50
2015,09,15,12,55,16.40
2015,09,15,12,56,16.30
2015,09,15,12,57,16.30
2015,09,15,12,58,16.30
2015,09,15,12,59,16.30
2015,09,15,13,00,16.30
2015,09,15,13,01,16.30
2015,09,15,13,02,16.30
2015,09,15,13,03,16.30
2015,09,15,13,04,16.30
2015,09,15,13,05,16.30
2015,09,15,13,06,16.20
2015,09,15,13,07,16.20
2015,09,15,13,08,16.10
2015,09,15,13,09,16.10
2015,09,15,13,10,16.10
2015,09,15,13,11,16.00
2015,09,15,13,12,16.00
2015,09,15,13,13,16.00
2015,09,15,13,14,15.80
2015,09,15,13,15,15.80
2015,09,15,13,16,15.70
2015,09,15,13,17,15.70
2015,09,15,13,18,15.70
2015,09,15,13,19,15.70
2015,09,15,13,20,15.60
2015,09,15,13,21,15.60
2015,09,15,13,22,15.60
2015,09,15,13,23,15.50
2015,09,15,13,24,15.50
2015,09,15,13,25,15.50
2015,09,15,13,26,15.50
2015,09,15,13,27,15.40
2015,09,15,13,28,15.30
2015,09,15,13,29,15.40
2015,09,15,13,30,15.40
2015,09,15,13,31,15.40
2015,09,15,13,32,15.50
2015,09,15,13,33,15.50
2015,09,15,13,34,15.60
2015,09,15,13,35,15.70
2015,09,15,13,36,15.70
2015,09,15,13,37,15.80
2015,09,15,13,38,15.90
2015,09,15,13,39,16.00
2015,09,15,13,40,16.00
2015,09,15,13,41,16.10
2015,09,15,13,42,16.10
2015,09,15,13,43,16.20
2015,09,15,13,44,16.20
2015,09,15,13,45,16.20
2015,09,15,13,46,16.20
2015,09,15,13,47,16.10
2015,09,15,13,48,16.10
2015,09,15,13,49,16.10
2015,09,15,13,50,16.10
2015,09,15,13,51,16.10
2015,09,15,13,52,16.20
2015,09,15,13,53,16.30
2015,09,15,13,54,16.20
2015,09,15,13,55,16.30
2015,09,15,13,56,16.40
2015,09,15,13,57,16.40
2015,09,15,13,58,16.40
2015,09,15,13,59,16.50
2015,09,15,14,00,16.60
2015,09,15,14,01,16.50
2015,09,15,14,02,16.50
2015,09,15,14,03,16.50
2015,09,15,14,04,16.50
2015,09,15,14,05,16.50
2015,09,15,14,06,16.50
2015,09,15,14,07,16.50
2015,09,15,14,08,16.50
2015,09,15,14,09,16.50
2015,09,15,14,10,16.50
2015,09,15,14,11,16.50
2015,09,15,14,12,16.50
2015,09,15,14,13,16.50
2015,09,15,14,14,16.50
2015,09,15,14,15,16.60
2015,09,15,14,16,16.50
2015,09,15,14,17,16.50
2015,09,15,14,18,16.40
2015,09,15,14,19,16.30
2015,09,15,14,20,16.20
2015,09,15,14,21,16.10
2015,09,15,14,22,16.00
2015,09,15,14,23,15.90
2015,09,15,14,24,15.90
2015,09,15,14,25,15.80
2015,09,15,14,26,15.70
2015,09,15,14,27,15.60
2015,09,15,14,28,15.50
2015,09,15,14,29,15.30
2015,09,15,14,30,15.20
2015,09,15,14,31,15.10
2015,09,15,14,32,15.00
2015,09,15,14,33,15.00
2015,09,15,14,34,15.00
2015,09,15,14,35,15.00
2015,09,15,14,36,15.00
2015,09,15,14,37,15.00
2015,09,15,14,38,15.00
2015,09,15,14,39,15.00
2015,09,15,14,40,15.00
2015,09,15,14,41,15.00
2015,09,15,14,42,15.00
2015,09,15,14,43,15.00
2015,09,15,14,44,15.00
2015,09,15,14,45,15.00
2015,09,15,14,46,15.00
2015,09,15,14,47,15.00
2015,09,15,14,48,15.00
2015,09,15,14,49,15.00
2015,09,15,14,50,15.00
2015,09,15,14,51,15.00
2015,09,15,14,52,15.00
2015,09,15,14,53,15.00
2015,09,15,14,54,15.00
2015,09,15,14,55,15.00
2015,09,15,14,56,15.00
2015,09,15,14,57,15.00
2015,09,15,14,58,15.00
2015,09,15,14,59,15.00
2015,09,15,15,00,15.00
2015,09,15,15,01,15.00
2015,09,15,15,02,15.00
2015,09,15,15,03,15.00
2015,09,15,15,04,14.90
2015,09,15,15,05,14.80
2015,09,15,15,06,14.70
2015,09,15,15,07,14.70
2015,09,15,15,08,14.70
2015,09,15,15,09,14.70
2015,09,15,15,10,14.70
2015,09,15,15,11,14.60
2015,09,15,15,12,14.60
2015,09,15,15,13,14.60
2015,09,15,15,14,14.60
2015,09,15,15,15,14.60
2015,09,15,15,16,14.60
2015,09,15,15,17,14.60
2015,09,15,15,18,14.60
2015,09,15,15,19,14.70
2015,09,15,15,20,14.70
2015,09,15,15,21,14.70
2015,09,15,15,22,14.70
2015,09,15,15,23,14.70
2015,09,15,15,24,14.80
2015,09,15,15,25,14.80
2015,09,15,15,26,14.80
2015,09,15,15,27,14.80
2015,09,15,15,28,14.80
2015,09,15,15,29,14.70
2015,09,15,15,30,14.70
2015,09,15,15,31,14.80
2015,09,15,15,32,14.80
2015,09,15,15,33,14.80
2015,09,15,15,34,14.80
2015,09,15,15,35,14.80
2015,09,15,15,36,14.80
2015,09,15,15,37,14.80
2015,09,15,15,38,14.80
2015,09,15,15,39,14.80
2015,09,15,15,40,14.80
2015,09,15,15,41,14.80
2015,09,15,15,42,14.90
2015,09,15,15,43,15.00
2015,09,15,15,44,15.00
2015,09,15,15,45,15.00
2015,09,15,15,46,15.00
2015,09,15,15,47,15.00
2015,09,15,15,48,15.00
2015,09,15,15,49,15.00
2015,09,15,15,50,15.00
2015,09,15,15,51,15.00
2015,09,15,15,52,15.00
2015,09,15,15,53,15.00
2015,09,15,15,54,15.00
2015,09,15,15,55,15.00
2015,09,15,15,56,15.00
2015,09,15,15,57,15.00
2015,09,15,15,58,15.00
2015,09,15,15,59,15.00
2015,09,15,16,00,15.00
2015,09,15,16,01,15.00
2015,09,15,16,02,15.00
2015,09,15,16,03,15.00
2015,09,15,16,04,15.00
2015,09,15,16,05,15.00
2015,09,15,16,06,14.90
2015,09,15,16,07,14.90
2015,09,15,16,08,14.80
2015,09,15,16,09,14.80
2015,09,15,16,10,14.80
2015,09,15,16,11,14.90
2015,09,15,16,12,14.90
2015,09,15,16,13,14.90
2015,09,15,16,14,14.90
2015,09,15,16,15,14.90
2015,09,15,16,16,15.00
2015,09,15,16,17,15.00
2015,09,15,16,18,15.00
2015,09,15,16,19,15.00
2015,09,15,16,20,15.00
2015,09,15,16,21,15.00
2015,09,15,16,22,15.00
2015,09,15,16,23,15.00
2015,09,15,16,24,15.00
2015,09,15,16,25,15.00
2015,09,15,16,26,15.00
2015,09,15,16,27,15.00
2015,09,15,16,28,15.00
2015,09,15,16,29,15.00
2015,09,15,16,30,15.00
2015,09,15,16,31,15.00
2015,09,15,16,32,15.00
2015,09,15,16,33,15.00
2015,09,15,16,34,15.00
2015,09,15,16,35,15.00
2015,09,15,16,36,15.00
2015,09,15,16,37,15.00
2015,09,15,16,38,15.00
2015,09,15,16,39,15.00
2015,09,15,16,40,15.00
2015,09,15,16,41,15.00
2015,09,15,16,42,15.00
2015,09,15,16,43,15.10
2015,09,15,16,44,15.10
2015,09,15,16,45,15.00
2015,09,15,16,46,15.00
2015,09,15,16,47,15.00
2015,09,15,16,48,15.00
2015,09,15,16,49,15.00
2015,09,15,16,50,15.00
2015,09,15,16,51,15.00
2015,09,15,16,52,15.00
2015,09,15,16,53,15.00
2015,09,15,16,54,15.00
2015,09,15,16,55,15.00
2015,09,15,16,56,15.00
2015,09,15,16,57,15.00
2015,09,15,16,58,15.00
2015,09,15,16,59,15.00
2015,09,15,17,00,15.00
2015,09,15,17,01,15.00
2015,09,15,17,02,15.00
2015,09,15,17,03,15.00
2015,09,15,17,04,15.00
2015,09,15,17,05,15.00
2015,09,15,17,06,15.00
2015,09,15,17,07,15.00
2015,09,15,17,08,15.00
2015,09,15,17,09,15.00
2015,09,15,17,10,15.00
2015,09,15,17,11,15.00
2015,09,15,17,12,15.00
2015,09,15,17,13,15.00
2015,09,15,17,14,15.00
2015,09,15,17,15,15.00
2015,09,15,17,16,15.00
2015,09,15,17,17,15.00
2015,09,15,17,18,15.00
2015,09,15,17,19,15.00
2015,09,15,17,20,15.00
2015,09,15,17,21,15.00
2015,09,15,17,22,15.00
2015,09,15,17,23,15.00
2015,09,15,17,24,15.00
2015,09,15,17,25,15.00
2015,09,15,17,26,15.00
2015,09,15,17,27,15.00
2015,09,15,17,28,15.00
2015,09,15,17,29,15.00
2015,09,15,17,30,15.00
2015,09,15,17,31,15.00
2015,09,15,17,32,15.00
2015,09,15,17,33,15.00
2015,09,15,17,34,15.00
2015,09,15,17,35,15.00
2015,09,15,17,36,15.00
2015,09,15,17,37,15.00
2015,09,15,17,38,15.00
2015,09,15,17,39,15.00
2015,09,15,17,40,15.00
2015,09,15,17,41,15.00
2015,09,15,17,42,15.00
2015,09,15,17,43,15.00
2015,09,15,17,44,15.00
2015,09,15,17,45,15.00
2015,09,15,17,46,15.00
2015,09,15,17,47,15.00
2015,09,15,17,48,15.00